FENGYUN 1C DEB, 30196

Orbit data source: Space-Track

FENGYUN 1C DEB, 30196 is space debris in SSO originally from a launch on Mon, 10 May 1999 UTC launched from the Taiyaun Space Center, China (TSC). Fengyun 1C debris stems from the Chinese weather satellite Fengyun-1C, which was intentionally destroyed by a Chinese anti-satellite missile in 2007. This event dramatically increased the amount of space debris, with thousands of trackable fragments posing hazards to satellites and human spaceflight. The Fengyun 1C debris cloud has become a focal point in discussions about space sustainability and the need for international regulations to prevent the creation of new debris.

Loading next visibility...
Identifier
30196, 1999-025VD
Orbit
SSO
Country
Flag of CNCN / PRC
Related business
Manufacturer
Unknown
Mission
Spacecraft
Bus & Motor
Unknown
Mass
Unknown
Launch date (UTC)
1999-05-10 (27 years ago)
Launch vehicle
Unknown
Launch site
Taiyaun Space Center, China (TSC)
Object type
Payload
Rocket body
Debris
Shape & HBR
Unknown shape, 0.1 m
Radar Cross Section
Small (<0.1 m²)

Expand to show TLE details & history
Last TLE update: 14 hours ago

TLE from 14 hours ago
0 FENGYUN 1C DEB
1 30196U 99025VD  25349.85648844  .00000083  00000-0  50962-4 0  9991
2 30196  98.6402  82.2644 0086855  54.1749  61.4229 14.25848617984098
Epoch: 2025-12-15T20:33Z
TLE epoch observation values (Epoch: 2025-12-15T20:33:20.601Z)
Latitude
62.34073°
Longitude
-114.05915°
Altitude
786.87 km
Speed
7.482 km/s
True Right ascension
18h 36m 06s
True Declination
62° 11' 59"
Sunlit
Object was in daylight at epoch
Visualization orbit readout
Latitude
Unknown
Longitude
Unknown
Altitude
Unknown
Speed
Unknown
Apparent Right ascension
Unknown
Apparent Declination
Unknown
Sunlit
N/A
Visualization observer readout
Local Sidereal Time
09:34:29
Azimuth
Unknown
Elevation
Unknown
Doppler factor
Unknown
Orbital elements
Apogee altitude
865.158 km
Perigee altitude
740.418 km
Semi-major axis
7,180.925 km
Eccentricity
0.00869
Inclination
98.6402°
RAAN
82.2644°
Arg. of periapsis
54.1749°
True anomaly
62.30146°
Mean anomaly
61.4229°
Eccentric anomaly
61.86173°
Mean motion
3.56675 °/min
Orbital period
100.93 mins
BSTAR
0.000050962
Loading maneuver chart data...
Computing Atmospheric mass density...

Documentation

Showing up to 5 results
|